Location: Fort Wayne
(41.1310°N, 85.1290°W)
Time: 04:13:13
(UTC-05:00)

Iridium 37 - Visible Passes

Search period start: 24 January 2017 00:00
Search period end: 03 February 2017 00:00
Orbit: 776 x 779 km, 86.4° (Epoch: 22 January)

Date Brightness Start Highest point End Pass type
(mag) Time Alt. Az. Time Alt. Az. Time Alt. Az.
24 Jan 7.2 04:57:38 27° SE 04:57:38 27° SE 05:00:09 10° SSE visible
24 Jan 7.2 06:38:13 14° WSW 06:38:13 14° WSW 06:39:22 10° SW visible
25 Jan 7.5 06:06:17 14° SSW 06:06:17 14° SSW 06:07:03 10° SSW visible
25 Jan 8.2 18:55:49 10° WSW 18:59:24 19° WNW 19:03:00 10° NNW visible
26 Jan 7.4 18:20:57 10° SW 18:25:37 33° W 18:30:19 10° NNW visible
28 Jan 8.5 18:57:28 10° W 18:59:45 13° WNW 19:02:03 10° NW visible
29 Jan 8.0 18:21:47 10° SW 18:25:52 23° WNW 18:30:01 10° NNW visible
01 Feb 8.3 18:22:59 10° WSW 18:26:12 16° WNW 18:29:26 10° NW visible
